Regional Weather Roundup
Issued by NWS

Home | Current Version | Previous Version | Text Only | Print | Product List | Glossary On
Versions: 1 2 3 4 5 6 7 8 9 10 11 12 13 14 15 16 17 18 19 20 21 22 23 24 25 26 27 28 29 30 31 32 33 34 35 36 37 38 39 40 41 42 43 44 45 46 47 48 49 50
000
ASUS46 KSEW 251210
RWRWA

WASHINGTON REGIONAL WEATHER ROUNDUP
NATIONAL WEATHER SERVICE SEATTLE WA
500 AM PDT SAT MAR 25 2017

NOTE:"FAIR" INDICATES FEW OR NO CLOUDS BELOW 12,000 FEET WITH NO
SIGNIFICANT WEATHER AND/OR OBSTRUCTIONS TO VISIBILITY.

WAZ507-509-555>559-251300-
SEATTLE, TACOMA, EVERETT, AND VICINITY

CITY           SKY/WX    TMP DP  RH WIND       PRES   REMARKS
EVERETT        CLOUDY    44  39  82 S17       30.03R
6HR MIN TEMP:  43; 6HR MAX TEMP:  45; 6HR PCP: TRACE;

BOEING FIELD   MOCLDY    45  42  89 S10       30.06S
6HR MIN TEMP:  45; 6HR MAX TEMP:  47; 6HR PCP:  0.01;

RENTON         CLOUDY    45  41  86 S10       30.06S
6HR MIN TEMP:  45; 6HR MAX TEMP:  48; 6HR PCP: TRACE;

SEATAC AIRPORT PTCLDY    44  41  89 S13       30.05S
6HR MIN TEMP:  44; 6HR MAX TEMP:  46; 6HR PCP:  0.01;

JBLM-MCCHORD   MOCLDY    44  43  99 S9        30.08R
6HR MIN TEMP:  40; 6HR MAX TEMP:  44; 6HR PCP:  0.01;

PUYALLUP       DRIZZLE   43  41  93 SE5       30.08R
BREMERTON      MOCLDY    41  39  93 S15       30.07S
6HR MIN TEMP:  41; 6HR MAX TEMP:  43; 6HR PCP:  0.05;

JBLM-FT LEWIS  PTCLDY    43  43  99 S8        30.07S
6HR MIN TEMP:  40; 6HR MAX TEMP:  44; 6HR PCP: TRACE;

TACOMA NARROWS CLOUDY    43  42  97 S12       30.07S
6HR MIN TEMP:  43; 6HR MAX TEMP:  45; 6HR PCP:  0.02;

$$

WAZ001-503-506-510-514-515-251300-
NORTH INTERIOR

CITY           SKY/WX    TMP DP  RH WIND       PRES   REMARKS
BELLINGHAM     CLOUDY    45  43  93 S8G17     30.00R
6HR MIN TEMP:  45; 6HR MAX TEMP:  47; 6HR PCP: TRACE;

FRIDAY HARBOR  NOT AVBL
EASTSOUND      MOCLDY    45  39  81 SW9       29.99R
PORT ANGELES   LGT RAIN  41  40  96 W7        30.02R
6HR MIN TEMP:  38; 6HR MAX TEMP:  43; 6HR PCP:  0.06;

EDIZ HOOK      CLOUDY    44  39  84 W12G17    30.03R
6HR MIN TEMP:  42; 6HR MAX TEMP:  44; 6HR PCP:  0.01;

PORT TOWNSEND  CLOUDY    43  41  93 CALM      30.04R
NAS WHIDBEY    LGT RAIN  47  40  76 CALM      30.07R
6HR MIN TEMP:  46; 6HR MAX TEMP:  48; 6HR PCP:  0.01;

ARLINGTON      CLOUDY    45  34  65 S10G16    30.06R
6HR MIN TEMP:  43; 6HR MAX TEMP:  48;

BURLINGTON     CLOUDY    45  41  87 S16       30.03R FOG
$$

WAZ020-022-039-040-504-511-512-251300-
SOUTHWEST INTERIOR

CITY           SKY/WX    TMP DP  RH WIND       PRES   REMARKS
SHELTON        CLOUDY    41  39  93 S5        30.05R
6HR MIN TEMP:  41; 6HR MAX TEMP:  45; 6HR PCP:  0.15;

OLYMPIA        CLOUDY    42  41  96 SW6       30.08R
6HR MIN TEMP:  42; 6HR MAX TEMP:  45; 6HR PCP:  0.05;

CHEHALIS       CLOUDY    43  43 100 S5        30.09S
KELSO          CLOUDY    44  42  93 SE6       30.12S
6HR MIN TEMP:  44; 6HR MAX TEMP:  47;

VANCOUVER      PTCLDY    46  43  89 S5        30.12S
6HR MIN TEMP:  45; 6HR MAX TEMP:  48;

SCAPPOOSE, OR  MOCLDY    37  37 100 CALM      30.12S
6HR MIN TEMP:  36; 6HR MAX TEMP:  42;

PORTLAND, OR   MOCLDY    44  41  89 S8        30.13S
6HR MIN TEMP:  43; 6HR MAX TEMP:  48; 6HR PCP: TRACE;

$$

WAZ021-516-517-251300-
WASHINGTON COAST

CITY           SKY/WX    TMP DP  RH WIND       PRES   REMARKS
FORKS          LGT RAIN  42  40  92 W9        30.04R
6HR MIN TEMP:  41; 6HR MAX TEMP:  45; 6HR PCP:  0.12;

HOQUIAM        CLOUDY    43  43 100 CALM      30.07R
6HR MIN TEMP:  43; 6HR MAX TEMP:  47; 6HR PCP:  0.12;

ASTORIA, OR    CLOUDY    44  41  89 SE3       30.09R
6HR MIN TEMP:  43; 6HR MAX TEMP:  47; 6HR PCP:  0.03;

$$

WAZ019-023-024-040-567>569-251300-
CASCADE MOUNTAINS AND COLUMBIA GORGE

CITY           SKY/WX    TMP DP  RH WIND       PRES   REMARKS
STAMPEDE PASS  NOT AVBL
TROUTDALE, OR  CLOUDY    46  42  86 CALM      30.13S
6HR MIN TEMP:  46; 6HR MAX TEMP:  49; 6HR PCP: TRACE;

THE DALLES, OR CLOUDY    45  41  86 CALM      30.10S
6HR MIN TEMP:  45; 6HR MAX TEMP:  48;

$$

WAZ026-027-041>044-520-521-251300-
EAST SLOPES

CITY           SKY/WX    TMP DP  RH WIND       PRES   REMARKS
OMAK           PTCLDY    35  30  82 CALM      29.99R
6HR MIN TEMP:  33; 6HR MAX TEMP:  42;

WENATCHEE      PTCLDY    37  34  89 CALM      29.99F
6HR MIN TEMP:  36; 6HR MAX TEMP:  42;

ELLENSBURG     CLEAR     35  30  82 W6        30.01R
6HR MIN TEMP:  34; 6HR MAX TEMP:  44;

YAKIMA         MOCLDY    37  33  85 W7        30.04R
6HR MIN TEMP:  36; 6HR MAX TEMP:  49;

SUNNYSIDE ARPT   N/A     42  35  75 CALM      30.05S
6HR MIN TEMP:  39; 6HR MAX TEMP:  47;

$$

WAZ028-034-035-251300-
COLUMBIA BASIN

CITY           SKY/WX    TMP DP  RH WIND       PRES   REMARKS
EPHRATA        MOCLDY    35  30  82 CALM      29.99R
6HR MIN TEMP:  35; 6HR MAX TEMP:  44;

MOSES LAKE     MOCLDY    39  34  82 SW12      30.01R
6HR MIN TEMP:  39; 6HR MAX TEMP:  47;

PASCO          CLOUDY    47  38  71 SW13      30.08R
6HR MIN TEMP:  43; 6HR MAX TEMP:  48; 6HR PCP: TRACE;

HERMISTON, OR  CLOUDY    41  39  93 S5        30.08S
6HR MIN TEMP:  34; 6HR MAX TEMP:  45; 6HR PCP: TRACE;

$$

WAZ036>038-251300-
NORTHEAST WASHINGTON

CITY           SKY/WX    TMP DP  RH WIND       PRES   REMARKS
SPOKANE GEIGER PTCLDY    39  36  89 S14       29.99S
6HR MIN TEMP:  38; 6HR MAX TEMP:  42;

SPOKANE FELTS  NOT AVBL
FAIRCHILD AFB  CLEAR     38  38 100 SW12      29.99R
6HR MIN TEMP:  38; 6HR MAX TEMP:  40; 6HR PCP: TRACE;

COEURDALENE,ID LGT RAIN  41  37  86 S7        30.02R
6HR MIN TEMP:  39; 6HR MAX TEMP:  43; 6HR PCP: TRACE;

DEER PARK      MOCLDY    35  33  92 N3        30.01R
6HR MIN TEMP:  35; 6HR MAX TEMP:  41;

$$

WAZ029>033-251300-
SOUTHEAST WASHINGTON

CITY           SKY/WX    TMP DP  RH WIND       PRES   REMARKS
PULLMAN        PTCLDY    39  34  82 S5        30.06R
6HR MIN TEMP:  37; 6HR MAX TEMP:  41; 6HR PCP:  0.01;

LEWISTON, ID   CLOUDY    42  37  82 CALM      30.08R
6HR MIN TEMP:  40; 6HR MAX TEMP:  47; 6HR PCP: TRACE;

WALLA WALLA    CLOUDY    45  39  79 S5        30.07R
6HR MIN TEMP:  44; 6HR MAX TEMP:  48;

PENDLETON, OR  CLOUDY    41  35  79 S3        30.08R
6HR MIN TEMP:  37; 6HR MAX TEMP:  44;

$$



USA.gov is the U.S. government's official web portal to all federal, state and local government web resources and services.